TimeCST,TemperatureF,Dew PointF,Humidity,Sea Level PressureIn,VisibilityMPH,Wind Direction,Wind SpeedMPH,Gust SpeedMPH,PrecipitationIn,Events,Conditions,WindDirDegrees,DateUTC
12:53 AM,37.0,28.0,70,30.31,10.0,Calm,Calm,-,N/A,,Clear,0,2012-12-13 06:53:00
1:53 AM,37.0,28.9,73,30.31,10.0,Calm,Calm,-,N/A,,Clear,0,2012-12-13 07:53:00
2:53 AM,35.1,28.0,76,30.30,10.0,NE,3.5,-,N/A,,Clear,40,2012-12-13 08:53:00
3:53 AM,35.1,28.0,76,30.31,10.0,Calm,Calm,-,N/A,,Clear,0,2012-12-13 09:53:00
4:53 AM,36.0,28.0,73,30.33,10.0,Calm,Calm,-,N/A,,Clear,0,2012-12-13 10:53:00
5:53 AM,33.1,28.9,85,30.33,10.0,NE,3.5,-,N/A,,Clear,50,2012-12-13 11:53:00
6:53 AM,34.0,28.0,79,30.35,10.0,Calm,Calm,-,N/A,,Clear,0,2012-12-13 12:53:00
7:53 AM,37.0,28.9,73,30.35,10.0,NNE,3.5,-,N/A,,Clear,20,2012-12-13 13:53:00
8:53 AM,44.1,32.0,63,30.37,10.0,NE,4.6,-,N/A,,Clear,40,2012-12-13 14:53:00
9:53 AM,50.0,28.9,44,30.39,10.0,ENE,4.6,-,N/A,,Clear,70,2012-12-13 15:53:00
10:53 AM,54.0,28.9,38,30.37,10.0,Variable,3.5,-,N/A,,Clear,0,2012-12-13 16:53:00
11:53 AM,59.0,27.0,29,30.34,10.0,Variable,6.9,-,N/A,,Clear,0,2012-12-13 17:53:00
12:53 PM,60.1,24.1,25,30.30,10.0,East,5.8,-,N/A,,Clear,80,2012-12-13 18:53:00
1:53 PM,62.1,25.0,24,30.27,10.0,ENE,5.8,-,N/A,,Clear,70,2012-12-13 19:53:00
2:53 PM,63.0,27.0,26,30.26,10.0,ENE,4.6,-,N/A,,Clear,70,2012-12-13 20:53:00
3:53 PM,63.0,27.0,26,30.26,10.0,NE,3.5,-,N/A,,Clear,40,2012-12-13 21:53:00
4:53 PM,60.8,26.6,27,30.25,10.0,Calm,Calm,-,N/A,,Clear,0,2012-12-13 22:53:00
6:53 PM,48.2,33.8,58,30.26,10.0,Calm,Calm,-,N/A,,Clear,0,2012-12-14 00:53:00
7:53 PM,48.0,34.0,58,30.28,10.0,Calm,Calm,-,N/A,,Clear,0,2012-12-14 01:53:00
8:53 PM,43.0,37.9,82,30.29,10.0,Calm,Calm,-,N/A,,Clear,0,2012-12-14 02:53:00
9:53 PM,42.1,36.0,79,30.29,10.0,Calm,Calm,-,N/A,,Clear,0,2012-12-14 03:53:00
10:53 PM,41.0,35.1,79,30.28,10.0,Calm,Calm,-,N/A,,Clear,0,2012-12-14 04:53:00
11:53 PM,41.0,35.6,81,30.28,10.0,Calm,Calm,-,N/A,,Clear,0,2012-12-14 05:53:00